Time,TemperatureF,DewpointF,PressureIn,WindDirection,WindDirectionDegrees,WindSpeedMPH,WindSpeedGustMPH,Humidity,HourlyPrecipIn,Conditions,Clouds,dailyrainin,SoftwareType,DateUTC
2013-12-23 00:00:00,55.9,54.0,30.03,WSW,247,3.7,4.0,94,0.00,,,0.00,Rainwise IP-100,2013-12-23 05:00:00,
2013-12-23 00:01:00,55.9,54.0,30.03,WSW,247,4.4,5.0,94,0.00,,,0.00,Rainwise IP-100,2013-12-23 05:01:00,
2013-12-23 00:06:00,56.0,54.0,30.03,SW,225,6.5,8.0,94,0.00,,,0.00,Rainwise IP-100,2013-12-23 05:06:00,
2013-12-23 00:11:00,56.5,54.0,30.03,SW,225,6.5,8.0,94,0.00,,,0.00,Rainwise IP-100,2013-12-23 05:11:00,
2013-12-23 00:16:00,57.0,55.0,30.02,SSW,202,6.5,8.0,94,0.00,,,0.00,Rainwise IP-100,2013-12-23 05:16:00,
2013-12-23 00:21:00,57.3,55.0,30.02,SSW,202,8.4,8.4,94,0.00,,,0.00,Rainwise IP-100,2013-12-23 05:21:00,
2013-12-23 00:26:00,57.5,56.0,30.01,SSW,202,4.9,9.0,93,0.00,,,0.00,Rainwise IP-100,2013-12-23 05:26:00,
2013-12-23 00:31:00,57.7,56.0,30.01,SSW,202,3.3,6.0,93,0.00,,,0.00,Rainwise IP-100,2013-12-23 05:31:00,
2013-12-23 00:37:00,57.7,55.0,30.00,SSW,202,1.6,4.0,92,0.00,,,0.00,Rainwise IP-100,2013-12-23 05:37:00,
2013-12-23 00:42:00,56.8,54.0,30.01,South,180,0.0,2.0,92,0.00,,,0.00,Rainwise IP-100,2013-12-23 05:42:00,
2013-12-23 00:47:00,56.0,53.0,30.01,South,180,0.0,0.0,91,0.00,,,0.00,Rainwise IP-100,2013-12-23 05:47:00,
2013-12-23 00:52:00,55.7,53.0,30.02,South,180,2.8,2.8,92,0.00,,,0.00,Rainwise IP-100,2013-12-23 05:52:00,
2013-12-23 00:57:00,54.6,53.0,30.02,SSE,157,4.7,5.0,92,0.00,,,0.00,Rainwise IP-100,2013-12-23 05:57:00,
2013-12-23 01:02:00,53.5,51.0,30.02,SSE,157,3.0,5.0,92,0.00,,,0.00,Rainwise IP-100,2013-12-23 06:02:00,
2013-12-23 01:07:00,53.3,50.0,30.02,SSW,202,3.3,4.0,93,0.00,,,0.00,Rainwise IP-100,2013-12-23 06:07:00,
2013-12-23 01:13:00,54.0,52.0,30.03,WSW,247,4.0,4.0,94,0.00,,,0.00,Rainwise IP-100,2013-12-23 06:13:00,
2013-12-23 01:18:00,55.0,53.0,30.03,SW,225,3.5,7.0,94,0.00,,,0.00,Rainwise IP-100,2013-12-23 06:18:00,
2013-12-23 01:23:00,55.5,54.0,30.03,SW,225,3.5,6.0,95,0.00,,,0.00,Rainwise IP-100,2013-12-23 06:23:00,
2013-12-23 01:28:00,55.7,54.0,30.04,SW,225,4.7,6.0,95,0.00,,,0.00,Rainwise IP-100,2013-12-23 06:28:00,
2013-12-23 01:33:00,55.7,54.0,30.04,SW,225,6.3,8.0,95,0.00,,,0.00,Rainwise IP-100,2013-12-23 06:33:00,
2013-12-23 01:38:00,55.7,54.0,30.04,SW,225,5.1,8.0,95,0.00,,,0.00,Rainwise IP-100,2013-12-23 06:38:00,
2013-12-23 01:43:00,55.7,54.0,30.03,SSW,202,5.8,8.0,95,0.00,,,0.00,Rainwise IP-100,2013-12-23 06:43:00,
2013-12-23 01:48:00,55.8,54.0,30.04,SSW,202,4.4,8.0,95,0.00,,,0.00,Rainwise IP-100,2013-12-23 06:48:00,
2013-12-23 01:54:00,55.9,54.0,30.04,SSW,202,4.4,6.0,95,0.00,,,0.00,Rainwise IP-100,2013-12-23 06:54:00,
2013-12-23 01:59:00,56.0,54.0,30.03,SW,225,3.3,5.0,95,0.00,,,0.00,Rainwise IP-100,2013-12-23 06:59:00,
2013-12-23 02:04:00,56.2,54.0,30.04,WSW,247,3.0,4.0,95,0.00,,,0.00,Rainwise IP-100,2013-12-23 07:04:00,
2013-12-23 02:09:00,56.4,55.0,30.04,WSW,247,4.4,4.4,95,0.00,,,0.00,Rainwise IP-100,2013-12-23 07:09:00,
2013-12-23 02:14:00,56.6,55.0,30.04,WSW,247,4.9,5.0,95,0.00,,,0.00,Rainwise IP-100,2013-12-23 07:14:00,
2013-12-23 02:19:00,56.8,55.0,30.03,WSW,247,0.0,4.0,95,0.00,,,0.00,Rainwise IP-100,2013-12-23 07:19:00,
2013-12-23 02:24:00,56.9,56.0,30.03,South,180,3.5,4.0,95,0.00,,,0.00,Rainwise IP-100,2013-12-23 07:24:00,
2013-12-23 02:30:00,56.8,55.0,30.02,SSW,202,5.6,7.0,95,0.00,,,0.00,Rainwise IP-100,2013-12-23 07:30:00,
2013-12-23 02:35:00,56.6,55.0,30.03,SSW,202,7.2,8.0,95,0.00,,,0.00,Rainwise IP-100,2013-12-23 07:35:00,
2013-12-23 02:40:00,56.4,55.0,30.02,SSW,202,5.4,8.0,95,0.00,,,0.00,Rainwise IP-100,2013-12-23 07:40:00,
2013-12-23 02:45:00,56.2,54.0,30.02,South,180,4.2,6.0,95,0.00,,,0.00,Rainwise IP-100,2013-12-23 07:45:00,
2013-12-23 02:50:00,56.0,54.0,30.02,SW,225,3.0,5.0,95,0.00,,,0.00,Rainwise IP-100,2013-12-23 07:50:00,
2013-12-23 02:55:00,55.7,54.0,30.03,SW,225,3.5,4.0,95,0.00,,,0.00,Rainwise IP-100,2013-12-23 07:55:00,
2013-12-23 03:00:00,55.5,54.0,30.04,SW,225,5.6,5.6,95,0.00,,,0.00,Rainwise IP-100,2013-12-23 08:00:00,
2013-12-23 03:05:00,55.4,54.0,30.03,SSW,202,3.0,6.0,95,0.00,,,0.00,Rainwise IP-100,2013-12-23 08:05:00,
2013-12-23 03:11:00,55.5,54.0,30.04,SW,225,3.5,7.0,95,0.00,,,0.00,Rainwise IP-100,2013-12-23 08:11:00,
2013-12-23 03:16:00,55.5,54.0,30.03,SW,225,2.3,4.0,95,0.00,,,0.00,Rainwise IP-100,2013-12-23 08:16:00,
2013-12-23 03:21:00,55.4,54.0,30.04,SW,225,2.6,4.0,95,0.00,,,0.00,Rainwise IP-100,2013-12-23 08:21:00,
2013-12-23 03:26:00,55.5,54.0,30.05,SW,225,1.9,4.0,95,0.00,,,0.00,Rainwise IP-100,2013-12-23 08:26:00,
2013-12-23 03:31:00,55.5,54.0,30.04,SSW,202,1.9,4.0,96,0.00,,,0.00,Rainwise IP-100,2013-12-23 08:31:00,
2013-12-23 03:36:00,55.4,54.0,30.05,SSW,202,3.0,4.0,96,0.00,,,0.00,Rainwise IP-100,2013-12-23 08:36:00,
2013-12-23 03:41:00,55.4,54.0,30.05,SW,225,2.6,3.0,96,0.00,,,0.00,Rainwise IP-100,2013-12-23 08:41:00,
2013-12-23 03:47:00,55.5,54.0,30.04,SSW,202,1.4,3.0,96,0.00,,,0.00,Rainwise IP-100,2013-12-23 08:47:00,
2013-12-23 03:52:00,55.7,54.0,30.04,SSW,202,1.2,2.0,96,0.00,,,0.00,Rainwise IP-100,2013-12-23 08:52:00,
2013-12-23 03:57:00,55.9,54.0,30.03,South,180,2.1,2.1,96,0.00,,,0.00,Rainwise IP-100,2013-12-23 08:57:00,
2013-12-23 04:02:00,54.8,53.0,30.04,SSE,157,3.5,3.5,95,0.00,,,0.00,Rainwise IP-100,2013-12-23 09:02:00,
2013-12-23 04:07:00,53.9,53.0,30.04,SSE,157,1.9,3.0,95,0.00,,,0.00,Rainwise IP-100,2013-12-23 09:07:00,
2013-12-23 04:12:00,54.4,53.0,30.04,SSE,157,0.0,2.0,96,0.00,,,0.00,Rainwise IP-100,2013-12-23 09:12:00,
2013-12-23 04:17:00,54.6,53.0,30.05,South,180,0.0,1.0,96,0.00,,,0.00,Rainwise IP-100,2013-12-23 09:17:00,
2013-12-23 04:22:00,54.4,53.0,30.04,South,180,1.9,1.9,96,0.00,,,0.00,Rainwise IP-100,2013-12-23 09:22:00,
2013-12-23 04:28:00,54.3,53.0,30.04,South,180,1.6,2.0,96,0.00,,,0.00,Rainwise IP-100,2013-12-23 09:28:00,
2013-12-23 04:33:00,54.4,53.0,30.04,South,180,2.1,3.0,96,0.00,,,0.00,Rainwise IP-100,2013-12-23 09:33:00,
2013-12-23 04:38:00,54.7,53.0,30.03,South,180,1.9,2.0,96,0.00,,,0.00,Rainwise IP-100,2013-12-23 09:38:00,
2013-12-23 04:43:00,54.3,53.0,30.03,SE,135,0.0,2.0,96,0.00,,,0.00,Rainwise IP-100,2013-12-23 09:43:00,
2013-12-23 04:48:00,53.6,52.0,30.04,SE,135,0.0,0.0,96,0.00,,,0.00,Rainwise IP-100,2013-12-23 09:48:00,
2013-12-23 04:53:00,53.4,52.0,30.04,SW,225,0.0,0.0,96,0.00,,,0.00,Rainwise IP-100,2013-12-23 09:53:00,
2013-12-23 04:58:00,53.6,52.0,30.03,WSW,247,0.0,1.0,96,0.00,,,0.00,Rainwise IP-100,2013-12-23 09:58:00,
2013-12-23 05:04:00,54.1,53.0,30.02,NNW,337,1.4,1.4,97,0.00,,,0.00,Rainwise IP-100,2013-12-23 10:04:00,
2013-12-23 05:09:00,53.9,53.0,30.03,NNW,337,0.0,1.0,97,0.00,,,0.00,Rainwise IP-100,2013-12-23 10:09:00,
2013-12-23 05:14:00,53.6,53.0,30.02,NNW,337,0.0,0.0,97,0.00,,,0.00,Rainwise IP-100,2013-12-23 10:14:00,
2013-12-23 05:19:00,53.4,53.0,30.03,NNW,337,0.0,0.0,97,0.00,,,0.00,Rainwise IP-100,2013-12-23 10:19:00,
2013-12-23 05:24:00,53.2,52.0,30.03,NNW,337,0.0,2.0,97,0.00,,,0.00,Rainwise IP-100,2013-12-23 10:24:00,
2013-12-23 05:29:00,52.9,52.0,30.03,SSW,202,0.0,3.0,97,0.00,,,0.00,Rainwise IP-100,2013-12-23 10:29:00,
2013-12-23 05:34:00,52.8,52.0,30.03,SSW,202,0.0,2.0,97,0.00,,,0.00,Rainwise IP-100,2013-12-23 10:34:00,
2013-12-23 05:39:00,53.0,52.0,30.03,East,90,0.0,1.0,97,0.00,,,0.00,Rainwise IP-100,2013-12-23 10:39:00,
2013-12-23 05:45:00,53.4,53.0,30.03,East,90,0.0,0.0,98,0.00,,,0.00,Rainwise IP-100,2013-12-23 10:45:00,
2013-12-23 05:50:00,53.6,53.0,30.03,NNE,22,1.9,2.0,98,0.00,,,0.00,Rainwise IP-100,2013-12-23 10:50:00,
2013-12-23 05:55:00,53.6,53.0,30.04,North,360,1.4,2.0,98,0.00,,,0.00,Rainwise IP-100,2013-12-23 10:55:00,
2013-12-23 06:00:00,53.6,53.0,30.05,North,360,1.6,1.6,98,0.00,,,0.00,Rainwise IP-100,2013-12-23 11:00:00,
2013-12-23 06:05:00,53.8,53.0,30.04,North,360,0.0,3.0,98,0.00,,,0.00,Rainwise IP-100,2013-12-23 11:05:00,
2013-12-23 06:10:00,54.0,53.0,30.04,North,360,0.0,0.0,98,0.00,,,0.00,Rainwise IP-100,2013-12-23 11:10:00,
2013-12-23 06:15:00,53.7,53.0,30.04,East,90,0.0,3.0,98,0.00,,,0.00,Rainwise IP-100,2013-12-23 11:15:00,
2013-12-23 06:21:00,53.4,53.0,30.05,NNE,22,2.6,2.6,98,0.06,,,0.01,Rainwise IP-100,2013-12-23 11:21:00,
2013-12-23 06:26:00,53.5,53.0,30.04,NNE,22,1.9,2.0,98,0.06,,,0.01,Rainwise IP-100,2013-12-23 11:26:00,
2013-12-23 06:31:00,53.8,53.0,30.05,NNE,22,0.0,1.0,98,0.06,,,0.02,Rainwise IP-100,2013-12-23 11:31:00,
2013-12-23 06:36:00,54.1,53.0,30.04,NNE,22,0.0,0.0,98,0.12,,,0.03,Rainwise IP-100,2013-12-23 11:36:00,
2013-12-23 06:41:00,54.2,53.0,30.04,NNE,22,0.0,0.0,98,0.06,,,0.03,Rainwise IP-100,2013-12-23 11:41:00,
2013-12-23 06:46:00,53.9,53.0,30.04,ESE,112,3.3,3.3,98,0.00,,,0.03,Rainwise IP-100,2013-12-23 11:46:00,
2013-12-23 06:51:00,53.5,53.0,30.05,SE,135,0.0,4.0,98,0.06,,,0.04,Rainwise IP-100,2013-12-23 11:51:00,
2013-12-23 06:56:00,53.3,52.0,30.05,SSW,202,1.4,2.0,98,0.12,,,0.05,Rainwise IP-100,2013-12-23 11:56:00,
2013-12-23 07:02:00,53.7,53.0,30.04,South,180,2.1,3.0,99,0.06,,,0.05,Rainwise IP-100,2013-12-23 12:02:00,
2013-12-23 07:07:00,54.3,54.0,30.04,SSW,202,1.6,3.0,99,0.00,,,0.05,Rainwise IP-100,2013-12-23 12:07:00,
2013-12-23 07:12:00,54.4,54.0,30.04,SSW,202,0.0,1.0,99,0.00,,,0.05,Rainwise IP-100,2013-12-23 12:12:00,
2013-12-23 07:17:00,54.0,54.0,30.04,SSW,202,1.6,1.6,99,0.06,,,0.06,Rainwise IP-100,2013-12-23 12:17:00,
2013-12-23 07:22:00,53.7,53.0,30.04,SSW,202,0.0,2.0,99,0.06,,,0.06,Rainwise IP-100,2013-12-23 12:22:00,
2013-12-23 07:27:00,53.7,53.0,30.04,NW,315,3.0,3.0,99,0.06,,,0.07,Rainwise IP-100,2013-12-23 12:27:00,
2013-12-23 07:45:00,55.0,55.0,30.05,NW,315,2.8,3.0,99,0.06,,,0.08,Rainwise IP-100,2013-12-23 12:45:00,
2013-12-23 07:51:00,55.1,55.0,30.04,West,270,1.9,3.0,99,0.06,,,0.08,Rainwise IP-100,2013-12-23 12:51:00,
2013-12-23 07:56:00,55.6,56.0,30.04,West,270,2.6,2.6,99,0.00,,,0.08,Rainwise IP-100,2013-12-23 12:56:00,
2013-12-23 08:01:00,55.9,56.0,30.04,NW,315,3.0,3.0,99,0.06,,,0.09,Rainwise IP-100,2013-12-23 13:01:00,
2013-12-23 08:06:00,55.6,56.0,30.05,NW,315,0.0,3.0,99,0.06,,,0.09,Rainwise IP-100,2013-12-23 13:06:00,
2013-12-23 08:11:00,55.5,56.0,30.05,WSW,247,3.3,3.3,99,0.00,,,0.09,Rainwise IP-100,2013-12-23 13:11:00,
2013-12-23 08:16:00,55.9,56.0,30.05,SW,225,2.6,4.0,99,0.06,,,0.10,Rainwise IP-100,2013-12-23 13:16:00,
2013-12-23 08:21:00,55.1,55.0,30.06,SSE,157,2.6,3.0,99,0.06,,,0.10,Rainwise IP-100,2013-12-23 13:21:00,
2013-12-23 08:26:00,54.0,53.0,30.06,SE,135,3.5,4.0,98,0.00,,,0.11,Rainwise IP-100,2013-12-23 13:26:00,
2013-12-23 08:32:00,53.7,53.0,30.05,SE,135,2.6,3.0,99,0.06,,,0.11,Rainwise IP-100,2013-12-23 13:32:00,
2013-12-23 08:37:00,53.6,53.0,30.05,SE,135,3.5,4.0,99,0.06,,,0.12,Rainwise IP-100,2013-12-23 13:37:00,
2013-12-23 08:42:00,53.4,53.0,30.05,ESE,112,4.0,4.0,100,0.12,,,0.13,Rainwise IP-100,2013-12-23 13:42:00,
2013-12-23 08:47:00,53.5,53.0,30.05,ESE,112,2.3,4.0,100,0.06,,,0.13,Rainwise IP-100,2013-12-23 13:47:00,
2013-12-23 08:52:00,53.6,53.0,30.04,ESE,112,3.5,4.0,100,0.06,,,0.14,Rainwise IP-100,2013-12-23 13:52:00,
2013-12-23 08:57:00,53.8,53.0,30.04,ESE,112,2.1,4.0,100,0.06,,,0.14,Rainwise IP-100,2013-12-23 13:57:00,
2013-12-23 09:02:00,54.0,54.0,30.03,ESE,112,0.0,2.0,100,0.06,,,0.15,Rainwise IP-100,2013-12-23 14:02:00,
2013-12-23 09:08:00,54.0,54.0,30.04,ESE,112,0.0,2.0,100,0.06,,,0.15,Rainwise IP-100,2013-12-23 14:08:00,
2013-12-23 09:13:00,54.0,54.0,30.04,ESE,112,0.0,1.0,100,0.00,,,0.15,Rainwise IP-100,2013-12-23 14:13:00,
2013-12-23 09:18:00,54.1,54.0,30.04,ESE,112,0.0,0.0,100,0.06,,,0.16,Rainwise IP-100,2013-12-23 14:18:00,
2013-12-23 09:23:00,54.2,54.0,30.04,ESE,112,1.9,2.0,100,0.06,,,0.16,Rainwise IP-100,2013-12-23 14:23:00,
2013-12-23 09:28:00,54.0,54.0,30.04,SE,135,3.5,3.5,100,0.06,,,0.17,Rainwise IP-100,2013-12-23 14:28:00,
2013-12-23 09:33:00,53.4,53.0,30.04,SE,135,2.8,3.0,100,0.06,,,0.17,Rainwise IP-100,2013-12-23 14:33:00,
2013-12-23 09:38:00,53.0,53.0,30.04,East,90,4.2,4.2,100,0.06,,,0.18,Rainwise IP-100,2013-12-23 14:38:00,
2013-12-23 09:43:00,53.2,53.0,30.04,ESE,112,3.3,4.0,100,0.06,,,0.18,Rainwise IP-100,2013-12-23 14:43:00,
2013-12-23 09:49:00,53.6,53.0,30.04,ESE,112,2.6,4.0,100,0.00,,,0.18,Rainwise IP-100,2013-12-23 14:49:00,
2013-12-23 09:54:00,53.6,53.0,30.04,ESE,112,0.0,3.0,100,0.00,,,0.18,Rainwise IP-100,2013-12-23 14:54:00,
2013-12-23 09:59:00,53.7,53.0,30.05,ESE,112,0.0,1.0,100,0.00,,,0.18,Rainwise IP-100,2013-12-23 14:59:00,
2013-12-23 10:00:00,53.7,53.0,30.04,ESE,112,1.4,1.4,100,0.00,,,0.19,Rainwise IP-100,2013-12-23 15:00:00,
2013-12-23 10:05:00,53.8,53.0,30.04,ESE,112,0.0,1.0,100,0.06,,,0.19,Rainwise IP-100,2013-12-23 15:05:00,
2013-12-23 10:11:00,53.7,53.0,30.05,ESE,112,0.0,1.0,100,0.00,,,0.19,Rainwise IP-100,2013-12-23 15:11:00,
2013-12-23 10:16:00,53.5,53.0,30.05,SE,135,3.0,4.0,100,0.00,,,0.19,Rainwise IP-100,2013-12-23 15:16:00,
2013-12-23 10:21:00,52.9,53.0,30.04,ESE,112,4.9,4.9,100,0.00,,,0.19,Rainwise IP-100,2013-12-23 15:21:00,
2013-12-23 10:26:00,52.5,53.0,30.02,ESE,112,6.5,6.5,100,0.00,,,0.19,Rainwise IP-100,2013-12-23 15:26:00,
2013-12-23 10:31:00,52.7,53.0,30.02,ESE,112,8.4,8.4,100,0.00,,,0.19,Rainwise IP-100,2013-12-23 15:31:00,
2013-12-23 10:36:00,52.6,53.0,30.02,ESE,112,7.5,9.0,100,0.00,,,0.19,Rainwise IP-100,2013-12-23 15:36:00,
2013-12-23 10:41:00,52.2,52.0,30.02,SE,135,2.3,7.0,100,0.00,,,0.19,Rainwise IP-100,2013-12-23 15:41:00,
2013-12-23 10:47:00,51.8,52.0,30.01,ESE,112,3.7,5.0,100,0.00,,,0.19,Rainwise IP-100,2013-12-23 15:47:00,
2013-12-23 10:52:00,51.4,51.0,30.02,WSW,247,0.0,4.0,100,0.00,,,0.19,Rainwise IP-100,2013-12-23 15:52:00,
2013-12-23 10:57:00,51.5,52.0,30.02,SE,135,0.0,2.0,100,0.00,,,0.19,Rainwise IP-100,2013-12-23 15:57:00,
2013-12-23 11:02:00,51.8,52.0,30.02,SE,135,0.0,0.0,100,0.00,,,0.19,Rainwise IP-100,2013-12-23 16:02:00,
2013-12-23 11:07:00,52.3,52.0,30.01,SSE,157,0.0,0.0,100,0.06,,,0.20,Rainwise IP-100,2013-12-23 16:07:00,
2013-12-23 11:12:00,53.0,53.0,30.01,SSE,157,1.4,1.4,100,0.06,,,0.20,Rainwise IP-100,2013-12-23 16:12:00,
2013-12-23 11:17:00,53.2,53.0,30.01,SSE,157,0.0,1.0,100,0.06,,,0.21,Rainwise IP-100,2013-12-23 16:17:00,
2013-12-23 11:22:00,53.2,53.0,30.01,ESE,112,0.0,0.0,100,0.06,,,0.21,Rainwise IP-100,2013-12-23 16:22:00,
2013-12-23 11:28:00,53.2,53.0,30.01,ESE,112,0.0,1.0,100,0.06,,,0.22,Rainwise IP-100,2013-12-23 16:28:00,
2013-12-23 11:33:00,53.4,53.0,30.00,SE,135,2.6,3.0,100,0.12,,,0.23,Rainwise IP-100,2013-12-23 16:33:00,
2013-12-23 11:38:00,53.4,53.0,29.98,SE,135,6.8,8.0,100,0.06,,,0.23,Rainwise IP-100,2013-12-23 16:38:00,
2013-12-23 11:43:00,53.4,53.0,29.98,SE,135,2.8,8.0,100,0.06,,,0.24,Rainwise IP-100,2013-12-23 16:43:00,
2013-12-23 11:48:00,53.2,53.0,29.97,SE,135,1.9,3.0,100,0.12,,,0.25,Rainwise IP-100,2013-12-23 16:48:00,
2013-12-23 11:53:00,52.9,53.0,29.97,SE,135,0.0,2.0,100,0.06,,,0.25,Rainwise IP-100,2013-12-23 16:53:00,
2013-12-23 11:58:00,52.9,53.0,29.97,ESE,112,0.0,0.0,100,0.00,,,0.25,Rainwise IP-100,2013-12-23 16:58:00,
2013-12-23 12:04:00,53.2,53.0,29.94,East,90,4.9,6.0,100,0.00,,,0.26,Rainwise IP-100,2013-12-23 17:04:00,
2013-12-23 12:09:00,53.5,53.0,29.97,NNW,337,0.0,4.0,100,0.06,,,0.26,Rainwise IP-100,2013-12-23 17:09:00,
2013-12-23 12:14:00,53.5,53.0,29.96,NNW,337,2.3,2.3,100,0.00,,,0.26,Rainwise IP-100,2013-12-23 17:14:00,
2013-12-23 12:19:00,53.5,53.0,29.96,NNW,337,3.5,5.0,100,0.00,,,0.26,Rainwise IP-100,2013-12-23 17:19:00,
2013-12-23 12:24:00,53.7,53.0,29.95,NNW,337,9.6,9.6,100,0.00,,,0.26,Rainwise IP-100,2013-12-23 17:24:00,
2013-12-23 12:29:00,54.5,54.0,29.96,NW,315,8.2,14.0,100,0.00,,,0.26,Rainwise IP-100,2013-12-23 17:29:00,
2013-12-23 12:34:00,55.6,56.0,29.97,WNW,292,9.6,11.0,100,0.24,,,0.30,Rainwise IP-100,2013-12-23 17:34:00,
2013-12-23 12:39:00,56.3,56.0,29.97,NW,315,11.7,14.0,100,0.30,,,0.31,Rainwise IP-100,2013-12-23 17:39:00,
2013-12-23 12:44:00,56.8,56.0,29.96,NW,315,6.8,13.0,100,0.42,,,0.38,Rainwise IP-100,2013-12-23 17:44:00,
2013-12-23 12:50:00,57.0,57.0,29.97,WNW,292,7.0,9.0,100,0.42,,,0.38,Rainwise IP-100,2013-12-23 17:50:00,
2013-12-23 12:55:00,57.2,57.0,29.97,WNW,292,13.5,17.0,100,0.06,,,0.39,Rainwise IP-100,2013-12-23 17:55:00,
2013-12-23 13:00:00,57.1,57.0,29.96,WNW,292,24.5,28.0,100,0.12,,,0.40,Rainwise IP-100,2013-12-23 18:00:00,
2013-12-23 13:05:00,56.2,56.0,29.97,NW,315,22.2,27.0,100,0.06,,,0.40,Rainwise IP-100,2013-12-23 18:05:00,
2013-12-23 13:10:00,54.2,54.0,29.96,NW,315,22.2,32.0,100,0.00,,,0.40,Rainwise IP-100,2013-12-23 18:10:00,
2013-12-23 13:15:00,52.3,52.0,29.97,NNW,337,14.0,26.0,99,0.00,,,0.40,Rainwise IP-100,2013-12-23 18:15:00,
2013-12-23 13:20:00,52.0,52.0,29.97,NNW,337,12.6,23.0,99,0.00,,,0.40,Rainwise IP-100,2013-12-23 18:20:00,
2013-12-23 13:26:00,52.0,52.0,29.96,NNW,337,13.3,23.0,99,0.00,,,0.40,Rainwise IP-100,2013-12-23 18:26:00,
2013-12-23 13:31:00,52.1,51.0,29.97,NNW,337,11.7,21.0,98,0.00,,,0.40,Rainwise IP-100,2013-12-23 18:31:00,
2013-12-23 13:36:00,52.1,51.0,29.97,NNW,337,15.2,23.0,98,0.00,,,0.40,Rainwise IP-100,2013-12-23 18:36:00,
2013-12-23 13:41:00,52.1,51.0,29.98,NNW,337,10.5,22.0,98,0.00,,,0.40,Rainwise IP-100,2013-12-23 18:41:00,
2013-12-23 13:46:00,52.1,51.0,29.98,NNW,337,13.8,17.0,98,0.00,,,0.40,Rainwise IP-100,2013-12-23 18:46:00,
2013-12-23 13:51:00,52.0,51.0,29.98,NNW,337,12.6,18.0,97,0.00,,,0.40,Rainwise IP-100,2013-12-23 18:51:00,
2013-12-23 13:56:00,52.1,51.0,29.99,NNW,337,10.7,15.0,97,0.00,,,0.40,Rainwise IP-100,2013-12-23 18:56:00,
2013-12-23 14:01:00,52.1,51.0,29.98,NNW,337,9.1,14.0,97,0.06,,,0.41,Rainwise IP-100,2013-12-23 19:01:00,
2013-12-23 14:07:00,52.2,51.0,29.99,NNW,337,4.4,14.0,97,0.06,,,0.41,Rainwise IP-100,2013-12-23 19:07:00,
2013-12-23 14:12:00,52.2,51.0,29.99,NNW,337,6.3,9.0,97,0.00,,,0.41,Rainwise IP-100,2013-12-23 19:12:00,
2013-12-23 14:17:00,52.2,51.0,30.00,NNW,337,7.5,11.0,97,0.06,,,0.42,Rainwise IP-100,2013-12-23 19:17:00,
2013-12-23 14:22:00,52.2,50.0,30.01,NNW,337,3.0,11.0,96,0.06,,,0.42,Rainwise IP-100,2013-12-23 19:22:00,
2013-12-23 14:27:00,52.2,50.0,30.00,NE,45,2.8,8.0,96,0.00,,,0.42,Rainwise IP-100,2013-12-23 19:27:00,
2013-12-23 14:32:00,52.2,50.0,29.99,ENE,67,3.3,5.0,96,0.06,,,0.43,Rainwise IP-100,2013-12-23 19:32:00,
2013-12-23 14:37:00,52.1,50.0,30.00,NNE,22,1.9,4.0,96,0.06,,,0.43,Rainwise IP-100,2013-12-23 19:37:00,
2013-12-23 14:43:00,52.1,50.0,30.01,NW,315,4.9,5.0,96,0.00,,,0.43,Rainwise IP-100,2013-12-23 19:43:00,
2013-12-23 14:48:00,52.1,50.0,30.01,North,360,2.8,4.0,96,0.00,,,0.43,Rainwise IP-100,2013-12-23 19:48:00,
2013-12-23 14:53:00,52.2,50.0,30.01,NNW,337,3.3,7.0,96,0.00,,,0.43,Rainwise IP-100,2013-12-23 19:53:00,
2013-12-23 14:58:00,52.1,50.0,30.02,NNW,337,5.8,9.0,96,0.06,,,0.44,Rainwise IP-100,2013-12-23 19:58:00,
2013-12-23 15:03:00,52.1,50.0,30.02,NNW,337,4.4,6.0,96,0.06,,,0.44,Rainwise IP-100,2013-12-23 20:03:00,
2013-12-23 15:08:00,52.1,50.0,30.03,WNW,292,3.0,5.0,96,0.00,,,0.44,Rainwise IP-100,2013-12-23 20:08:00,
2013-12-23 15:13:00,52.1,50.0,30.02,WNW,292,1.2,3.0,96,0.06,,,0.45,Rainwise IP-100,2013-12-23 20:13:00,
2013-12-23 15:18:00,52.1,50.0,30.03,NNW,337,0.0,2.0,96,0.06,,,0.45,Rainwise IP-100,2013-12-23 20:18:00,
2013-12-23 15:24:00,52.0,50.0,30.04,SSW,202,2.6,4.0,96,0.00,,,0.45,Rainwise IP-100,2013-12-23 20:24:00,
2013-12-23 15:29:00,51.7,50.0,30.04,SSW,202,1.4,2.0,96,0.00,,,0.45,Rainwise IP-100,2013-12-23 20:29:00,
2013-12-23 15:34:00,51.5,50.0,30.03,South,180,2.8,4.0,96,0.00,,,0.45,Rainwise IP-100,2013-12-23 20:34:00,
2013-12-23 15:39:00,51.2,50.0,30.04,South,180,3.0,3.0,96,0.00,,,0.45,Rainwise IP-100,2013-12-23 20:39:00,
2013-12-23 15:44:00,51.1,50.0,30.05,SSW,202,2.1,4.0,96,0.00,,,0.45,Rainwise IP-100,2013-12-23 20:44:00,
2013-12-23 15:49:00,51.2,50.0,30.06,West,270,6.3,6.3,97,0.00,,,0.45,Rainwise IP-100,2013-12-23 20:49:00,
2013-12-23 15:54:00,51.6,51.0,30.06,NNW,337,4.2,7.0,97,0.00,,,0.45,Rainwise IP-100,2013-12-23 20:54:00,
2013-12-23 16:00:00,51.6,51.0,30.07,NW,315,7.9,9.0,97,0.06,,,0.46,Rainwise IP-100,2013-12-23 21:00:00,
2013-12-23 16:05:00,51.6,51.0,30.07,WNW,292,3.0,8.0,97,0.06,,,0.46,Rainwise IP-100,2013-12-23 21:05:00,
2013-12-23 16:10:00,51.6,51.0,30.07,WNW,292,0.0,3.0,97,0.06,,,0.47,Rainwise IP-100,2013-12-23 21:10:00,
2013-12-23 16:15:00,51.6,51.0,30.07,WNW,292,0.0,0.0,97,0.06,,,0.47,Rainwise IP-100,2013-12-23 21:15:00,
2013-12-23 16:20:00,51.5,51.0,30.08,WNW,292,1.2,2.0,97,0.00,,,0.47,Rainwise IP-100,2013-12-23 21:20:00,
2013-12-23 16:25:00,51.5,51.0,30.06,NNW,337,4.9,6.0,97,0.00,,,0.48,Rainwise IP-100,2013-12-23 21:25:00,
2013-12-23 16:30:00,51.5,51.0,30.07,NW,315,4.0,5.0,97,0.06,,,0.48,Rainwise IP-100,2013-12-23 21:30:00,
2013-12-23 16:35:00,51.4,50.0,30.07,WNW,292,4.2,6.0,97,0.12,,,0.49,Rainwise IP-100,2013-12-23 21:35:00,
2013-12-23 16:41:00,51.3,50.0,30.09,West,270,4.9,5.0,97,0.12,,,0.50,Rainwise IP-100,2013-12-23 21:41:00,
2013-12-23 16:46:00,51.3,50.0,30.08,WNW,292,5.4,6.0,97,0.06,,,0.50,Rainwise IP-100,2013-12-23 21:46:00,
2013-12-23 16:51:00,51.3,50.0,30.09,WNW,292,4.2,5.0,98,0.06,,,0.51,Rainwise IP-100,2013-12-23 21:51:00,
2013-12-23 16:56:00,51.2,50.0,30.10,West,270,4.9,5.0,98,0.06,,,0.51,Rainwise IP-100,2013-12-23 21:56:00,
2013-12-23 17:01:00,51.2,50.0,30.09,WNW,292,4.2,5.0,98,0.00,,,0.51,Rainwise IP-100,2013-12-23 22:01:00,
2013-12-23 17:06:00,51.1,50.0,30.08,NW,315,3.0,5.0,98,0.00,,,0.51,Rainwise IP-100,2013-12-23 22:06:00,
2013-12-23 17:11:00,51.0,50.0,30.09,NW,315,3.3,4.0,98,0.00,,,0.51,Rainwise IP-100,2013-12-23 22:11:00,
2013-12-23 17:17:00,51.0,50.0,30.09,NW,315,3.3,4.0,98,0.00,,,0.51,Rainwise IP-100,2013-12-23 22:17:00,
2013-12-23 17:22:00,51.1,50.0,30.09,NW,315,0.0,3.0,98,0.00,,,0.51,Rainwise IP-100,2013-12-23 22:22:00,
2013-12-23 17:27:00,51.0,50.0,30.11,WSW,247,6.8,6.8,98,0.00,,,0.51,Rainwise IP-100,2013-12-23 22:27:00,
2013-12-23 17:32:00,51.0,50.0,30.10,West,270,5.1,7.0,98,0.00,,,0.51,Rainwise IP-100,2013-12-23 22:32:00,
2013-12-23 17:37:00,51.0,50.0,30.10,WNW,292,4.4,7.0,98,0.00,,,0.51,Rainwise IP-100,2013-12-23 22:37:00,
2013-12-23 17:42:00,51.0,50.0,30.09,WNW,292,4.0,6.0,98,0.00,,,0.51,Rainwise IP-100,2013-12-23 22:42:00,
2013-12-23 17:47:00,50.8,50.0,30.09,WNW,292,3.7,5.0,98,0.00,,,0.51,Rainwise IP-100,2013-12-23 22:47:00,
2013-12-23 17:52:00,50.8,50.0,30.09,WNW,292,3.0,4.0,98,0.00,,,0.51,Rainwise IP-100,2013-12-23 22:52:00,
2013-12-23 17:58:00,50.7,50.0,30.09,WNW,292,5.1,5.1,98,0.00,,,0.51,Rainwise IP-100,2013-12-23 22:58:00,
2013-12-23 18:03:00,50.6,50.0,30.09,WNW,292,4.9,5.0,98,0.00,,,0.51,Rainwise IP-100,2013-12-23 23:03:00,
2013-12-23 18:08:00,50.5,50.0,30.10,WNW,292,4.7,6.0,98,0.00,,,0.51,Rainwise IP-100,2013-12-23 23:08:00,
2013-12-23 18:13:00,50.4,50.0,30.10,WNW,292,3.5,6.0,98,0.00,,,0.51,Rainwise IP-100,2013-12-23 23:13:00,
2013-12-23 18:18:00,50.3,49.0,30.11,WNW,292,5.1,6.0,98,0.00,,,0.51,Rainwise IP-100,2013-12-23 23:18:00,
2013-12-23 18:23:00,50.2,49.0,30.11,WNW,292,6.3,8.0,98,0.00,,,0.51,Rainwise IP-100,2013-12-23 23:23:00,
2013-12-23 18:28:00,50.1,49.0,30.11,WNW,292,5.4,8.0,98,0.00,,,0.51,Rainwise IP-100,2013-12-23 23:28:00,
2013-12-23 18:34:00,50.0,49.0,30.10,WNW,292,5.4,7.0,98,0.00,,,0.51,Rainwise IP-100,2013-12-23 23:34:00,
2013-12-23 18:39:00,50.0,49.0,30.11,WNW,292,4.9,7.0,98,0.00,,,0.51,Rainwise IP-100,2013-12-23 23:39:00,
2013-12-23 18:44:00,50.0,49.0,30.11,WNW,292,4.2,6.0,98,0.00,,,0.51,Rainwise IP-100,2013-12-23 23:44:00,
2013-12-23 18:49:00,50.0,49.0,30.11,WNW,292,4.2,4.2,98,0.00,,,0.51,Rainwise IP-100,2013-12-23 23:49:00,
2013-12-23 18:54:00,49.9,49.0,30.11,WNW,292,5.4,7.0,98,0.00,,,0.51,Rainwise IP-100,2013-12-23 23:54:00,
2013-12-23 18:59:00,49.7,49.0,30.12,WNW,292,7.5,9.0,98,0.00,,,0.51,Rainwise IP-100,2013-12-23 23:59:00,
2013-12-23 19:04:00,49.7,49.0,30.13,WNW,292,7.0,8.0,98,0.00,,,0.51,Rainwise IP-100,2013-12-24 00:04:00,
2013-12-23 19:09:00,49.6,49.0,30.13,WNW,292,7.9,10.0,97,0.00,,,0.51,Rainwise IP-100,2013-12-24 00:09:00,
2013-12-23 19:15:00,49.6,49.0,30.13,NW,315,5.1,9.0,97,0.00,,,0.51,Rainwise IP-100,2013-12-24 00:15:00,
2013-12-23 19:20:00,49.5,49.0,30.13,NW,315,7.9,11.0,97,0.00,,,0.51,Rainwise IP-100,2013-12-24 00:20:00,
2013-12-23 19:25:00,49.4,48.0,30.12,NNW,337,9.8,10.0,97,0.00,,,0.51,Rainwise IP-100,2013-12-24 00:25:00,
2013-12-23 19:30:00,49.2,48.0,30.13,NNW,337,13.5,14.0,97,0.00,,,0.51,Rainwise IP-100,2013-12-24 00:30:00,
2013-12-23 19:35:00,49.1,48.0,30.13,NNW,337,8.9,13.0,97,0.00,,,0.51,Rainwise IP-100,2013-12-24 00:35:00,
2013-12-23 19:40:00,49.0,48.0,30.14,NNW,337,7.7,11.0,97,0.00,,,0.51,Rainwise IP-100,2013-12-24 00:40:00,
2013-12-23 19:45:00,48.9,48.0,30.13,NNW,337,4.2,11.0,97,0.00,,,0.51,Rainwise IP-100,2013-12-24 00:45:00,
2013-12-23 19:51:00,48.8,48.0,30.11,North,360,11.2,11.2,97,0.00,,,0.51,Rainwise IP-100,2013-12-24 00:51:00,
2013-12-23 19:56:00,48.6,48.0,30.11,North,360,11.4,14.0,96,0.06,,,0.52,Rainwise IP-100,2013-12-24 00:56:00,
2013-12-23 20:01:00,48.2,47.0,30.12,North,360,10.7,15.0,96,0.06,,,0.52,Rainwise IP-100,2013-12-24 01:01:00,
2013-12-23 20:06:00,47.9,47.0,30.12,NW,315,9.8,15.0,96,0.00,,,0.52,Rainwise IP-100,2013-12-24 01:06:00,
2013-12-23 20:11:00,47.5,46.0,30.13,NNW,337,7.9,18.0,95,0.00,,,0.52,Rainwise IP-100,2013-12-24 01:11:00,
2013-12-23 20:16:00,47.1,45.0,30.14,NNE,22,9.6,21.0,94,0.00,,,0.52,Rainwise IP-100,2013-12-24 01:16:00,
2013-12-23 20:21:00,46.6,45.0,30.17,NNW,337,10.0,19.0,94,0.00,,,0.52,Rainwise IP-100,2013-12-24 01:21:00,
2013-12-23 20:26:00,46.2,44.0,30.18,North,360,11.2,14.0,94,0.00,,,0.52,Rainwise IP-100,2013-12-24 01:26:00,
2013-12-23 20:32:00,45.8,44.0,30.17,North,360,11.7,23.0,93,0.00,,,0.52,Rainwise IP-100,2013-12-24 01:32:00,
2013-12-23 20:37:00,45.2,43.0,30.16,North,360,11.0,18.0,93,0.00,,,0.52,Rainwise IP-100,2013-12-24 01:37:00,
2013-12-23 20:42:00,44.7,43.0,30.16,NNW,337,12.6,19.0,93,0.00,,,0.52,Rainwise IP-100,2013-12-24 01:42:00,
2013-12-23 20:47:00,44.5,43.0,30.17,North,360,6.5,16.0,93,0.00,,,0.52,Rainwise IP-100,2013-12-24 01:47:00,
2013-12-23 20:52:00,44.2,42.0,30.17,NNW,337,10.5,15.0,93,0.00,,,0.52,Rainwise IP-100,2013-12-24 01:52:00,
2013-12-23 20:57:00,44.0,42.0,30.18,NNW,337,10.3,15.0,93,0.00,,,0.52,Rainwise IP-100,2013-12-24 01:57:00,
2013-12-23 21:02:00,43.8,42.0,30.18,NW,315,6.1,17.0,93,0.00,,,0.52,Rainwise IP-100,2013-12-24 02:02:00,
2013-12-23 21:08:00,43.7,42.0,30.18,NNW,337,12.8,15.0,93,0.00,,,0.52,Rainwise IP-100,2013-12-24 02:08:00,
2013-12-23 21:13:00,43.5,42.0,30.17,NW,315,16.3,20.0,92,0.00,,,0.52,Rainwise IP-100,2013-12-24 02:13:00,
2013-12-23 21:18:00,43.4,40.0,30.16,NNW,337,14.0,19.0,91,0.00,,,0.52,Rainwise IP-100,2013-12-24 02:18:00,
2013-12-23 21:23:00,43.3,40.0,30.17,NNW,337,14.5,19.0,91,0.00,,,0.52,Rainwise IP-100,2013-12-24 02:23:00,
2013-12-23 21:28:00,43.3,40.0,30.16,NNW,337,12.1,22.0,91,0.00,,,0.52,Rainwise IP-100,2013-12-24 02:28:00,
2013-12-23 21:33:00,43.3,40.0,30.17,NNW,337,10.0,17.0,91,0.00,,,0.52,Rainwise IP-100,2013-12-24 02:33:00,
2013-12-23 21:38:00,43.1,40.0,30.17,North,360,8.6,19.0,91,0.00,,,0.52,Rainwise IP-100,2013-12-24 02:38:00,
2013-12-23 21:43:00,42.9,40.0,30.17,NNW,337,12.1,21.0,91,0.00,,,0.52,Rainwise IP-100,2013-12-24 02:43:00,
2013-12-23 21:49:00,42.8,40.0,30.17,NNW,337,12.8,17.0,91,0.00,,,0.52,Rainwise IP-100,2013-12-24 02:49:00,
2013-12-23 21:54:00,42.8,40.0,30.16,NNW,337,11.9,19.0,91,0.00,,,0.52,Rainwise IP-100,2013-12-24 02:54:00,
2013-12-23 21:59:00,42.7,40.0,30.16,NNW,337,7.0,16.0,91,0.00,,,0.52,Rainwise IP-100,2013-12-24 02:59:00,
2013-12-23 22:04:00,42.6,40.0,30.16,NNW,337,11.4,12.0,91,0.00,,,0.52,Rainwise IP-100,2013-12-24 03:04:00,
2013-12-23 22:09:00,42.6,41.0,30.17,NNW,337,13.3,16.0,92,0.00,,,0.52,Rainwise IP-100,2013-12-24 03:09:00,
2013-12-23 22:14:00,42.5,40.0,30.18,NNW,337,10.0,13.0,91,0.00,,,0.52,Rainwise IP-100,2013-12-24 03:14:00,
2013-12-23 22:19:00,42.4,40.0,30.17,NNW,337,7.9,14.0,91,0.00,,,0.52,Rainwise IP-100,2013-12-24 03:19:00,
2013-12-23 22:25:00,42.4,40.0,30.17,NNW,337,10.5,15.0,91,0.00,,,0.52,Rainwise IP-100,2013-12-24 03:25:00,
2013-12-23 22:30:00,42.4,40.0,30.17,NNW,337,8.4,13.0,91,0.00,,,0.52,Rainwise IP-100,2013-12-24 03:30:00,
2013-12-23 22:35:00,42.3,39.0,30.17,NNW,337,7.9,14.0,90,0.00,,,0.52,Rainwise IP-100,2013-12-24 03:35:00,
2013-12-23 22:40:00,42.3,39.0,30.16,NNW,337,18.0,18.0,90,0.00,,,0.52,Rainwise IP-100,2013-12-24 03:40:00,
2013-12-23 22:45:00,42.2,39.0,30.17,NNW,337,12.1,18.0,89,0.00,,,0.52,Rainwise IP-100,2013-12-24 03:45:00,
2013-12-23 22:50:00,42.2,39.0,30.17,NNW,337,7.0,18.0,89,0.00,,,0.52,Rainwise IP-100,2013-12-24 03:50:00,
2013-12-23 22:55:00,42.2,39.0,30.18,NNW,337,10.0,14.0,89,0.00,,,0.52,Rainwise IP-100,2013-12-24 03:55:00,
2013-12-23 23:00:00,42.2,39.0,30.19,NNE,22,4.0,15.0,88,0.00,,,0.52,Rainwise IP-100,2013-12-24 04:00:00,
2013-12-23 23:06:00,42.1,39.0,30.19,NNW,337,8.9,11.0,88,0.00,,,0.52,Rainwise IP-100,2013-12-24 04:06:00,
2013-12-23 23:11:00,42.1,39.0,30.19,NNW,337,8.2,13.0,88,0.00,,,0.52,Rainwise IP-100,2013-12-24 04:11:00,
2013-12-23 23:16:00,42.0,39.0,30.18,NNW,337,10.0,10.0,88,0.00,,,0.52,Rainwise IP-100,2013-12-24 04:16:00,
2013-12-23 23:21:00,41.9,39.0,30.19,NNW,337,9.6,11.0,88,0.00,,,0.52,Rainwise IP-100,2013-12-24 04:21:00,
2013-12-23 23:26:00,41.9,38.0,30.18,NNW,337,11.7,14.0,87,0.00,,,0.52,Rainwise IP-100,2013-12-24 04:26:00,
2013-12-23 23:31:00,41.8,38.0,30.18,NNW,337,15.9,18.0,87,0.00,,,0.52,Rainwise IP-100,2013-12-24 04:31:00,
2013-12-23 23:36:00,41.7,38.0,30.19,NNW,337,14.0,17.0,86,0.00,,,0.52,Rainwise IP-100,2013-12-24 04:36:00,
2013-12-23 23:42:00,41.6,38.0,30.19,NNW,337,11.7,17.0,85,0.00,,,0.52,Rainwise IP-100,2013-12-24 04:42:00,
2013-12-23 23:47:00,41.5,38.0,30.19,NNW,337,9.6,16.0,85,0.00,,,0.52,Rainwise IP-100,2013-12-24 04:47:00,
2013-12-23 23:52:00,41.4,37.0,30.20,NNW,337,14.2,17.0,85,0.00,,,0.52,Rainwise IP-100,2013-12-24 04:52:00,
2013-12-23 23:57:00,41.3,37.0,30.20,NW,315,10.0,17.0,85,0.00,,,0.52,Rainwise IP-100,2013-12-24 04:57:00,